Weather History for Manchester, NH

Change the Weather History Date:

Monday, April 1, 2013

  Actual Average Record
Temperature  
Mean Temperature 48 °F -  
Max Temperature 61 °F 50 °F 71 °F (2006)
Min Temperature 34 °F 29 °F 10 °F (1969)
Degree Days  
Heating Degree Days 18    
Moisture  
Dew Point 34 °F    
Average Humidity 69    
Maximum Humidity 93    
Minimum Humidity 30    
Precipitation  
Precipitation 0.29 in - - ()
Sea Level Pressure  
Sea Level Pressure 29.64 in    
Wind  
Wind Speed 9 mph (WNW)    
Max Wind Speed 20 mph    
Max Gust Speed 33 mph    
Visibility 8 miles    
Events Rain    
Averages and records for this station are not official NWS values.
T = Trace of Precipitation, MM = Missing Value Source: NWS Daily Summary

Daily Weather History Graph

Daily Weather History Graph

Search for Another Location

Airport:

Trip Planner

Search our weather history database for the weather conditions in past years. The results will help you decide how hot, cold, wet, or windy it might be!

Date:

Astronomy

Apr. 01, 2013 Rise Set
Actual Time 6:27 AM EDT 7:12 PM EDT
Civil Twilight 5:58 AM EDT 7:40 PM EDT
Nautical Twilight 5:24 AM EDT 8:15 PM EDT
Astronomical Twilight 4:49 AM EDT 8:50 PM EDT
Moon 12:23 AM EDT (4/1) 10:04 AM EDT (4/1)
Length of Visible Light 13h 42m
Length of Day
12h 44m
Waning Gibbous, 67% of the Moon is Illuminated
Apr 1
Waning Gibbous
Apr 3
Last Quarter
Apr 10
New
Apr 18
First Quarter
Apr 25
Full

Hourly Weather History & Observations

Time (EDT) Temp. Windchill Dew Point Humidity Pressure Visibility Wind Dir Wind Speed Gust Speed Precip Events Conditions
12:53 AM 43.0 °F 38.2 °F 39.9 °F 89% 29.76 in 5.0 mi ENE 8.1 mph - 0.09 in Rain Light Rain
1:53 AM 42.8 °F 37.5 °F 39.2 °F 87% 29.67 in 4.0 mi NNE 9.2 mph - N/A Rain Rain
2:01 AM 42.8 °F 37.5 °F 39.2 °F 87% 29.66 in 5.0 mi NNE 9.2 mph - 0.01 in Rain Rain
2:53 AM 42.1 °F 35.2 °F 39.9 °F 92% 29.65 in 4.0 mi NNE 12.7 mph - 0.13 in Rain Light Rain
3:41 AM 42.8 °F 38.0 °F 39.2 °F 87% 29.59 in 4.0 mi North 8.1 mph - 0.02 in   Light Drizzle
3:53 AM 42.1 °F 37.1 °F 39.9 °F 92% 29.62 in 4.0 mi North 8.1 mph - 0.02 in   Light Drizzle
4:53 AM 42.8 °F 38.6 °F 41.0 °F 93% 29.57 in 4.0 mi NW 6.9 mph - N/A   Light Drizzle
5:53 AM 42.1 °F 37.7 °F 39.9 °F 92% 29.62 in 5.0 mi NW 6.9 mph - 0.00 in   Light Drizzle
6:53 AM 42.1 °F 37.7 °F 39.0 °F 89% 29.65 in 6.0 mi WNW 6.9 mph - 0.00 in   Overcast
7:04 AM 41.0 °F 36.4 °F 39.2 °F 93% 29.61 in 7.0 mi WNW 6.9 mph - N/A   Overcast
7:50 AM 42.8 °F 38.6 °F 39.2 °F 87% 29.61 in 7.0 mi NW 6.9 mph - N/A   Overcast
7:53 AM 42.1 °F 37.7 °F 39.0 °F 89% 29.66 in 7.0 mi NW 6.9 mph - N/A   Overcast
8:40 AM 42.8 °F 39.3 °F 39.2 °F 87% 29.60 in 10.0 mi NW 5.8 mph - N/A   Overcast
8:53 AM 44.1 °F 41.5 °F 39.0 °F 82% 29.65 in 10.0 mi WNW 4.6 mph - N/A   Mostly Cloudy
8:56 AM 44.6 °F 40.7 °F 39.2 °F 81% 29.60 in 10.0 mi West 6.9 mph - N/A   Mostly Cloudy
9:53 AM 48.0 °F - 39.9 °F 74% 29.64 in 10.0 mi West 4.6 mph - N/A   Scattered Clouds
10:53 AM 50.0 °F - 37.9 °F 63% 29.63 in 10.0 mi WSW 5.8 mph - N/A   Partly Cloudy
11:53 AM 54.0 °F - 37.9 °F 55% 29.60 in 10.0 mi WSW 9.2 mph 17.3 mph N/A   Partly Cloudy
12:53 PM 55.9 °F - 37.9 °F 51% 29.59 in 10.0 mi WSW 8.1 mph 18.4 mph N/A   Partly Cloudy
1:53 PM 57.9 °F - 37.9 °F 47% 29.56 in 10.0 mi WSW 9.2 mph - N/A   Mostly Cloudy
2:53 PM 60.1 °F - 34.0 °F 38% 29.52 in 10.0 mi SSW 16.1 mph 29.9 mph N/A   Mostly Cloudy
3:33 PM 48.2 °F - 41.0 °F 76% 29.53 in 8.0 mi West 16.1 mph 33.4 mph 0.03 in Rain Light Rain
3:53 PM 46.0 °F 40.2 °F 41.0 °F 83% 29.58 in 9.0 mi WNW 12.7 mph 21.9 mph 0.05 in Rain Light Rain
4:53 PM 48.9 °F - 37.0 °F 64% 29.59 in 10.0 mi West 12.7 mph 23.0 mph 0.00 in   Mostly Cloudy
5:53 PM 46.0 °F 38.5 °F 28.0 °F 50% 29.65 in 10.0 mi West 19.6 mph 27.6 mph N/A   Mostly Cloudy
6:53 PM 44.1 °F 36.8 °F 24.1 °F 45% 29.68 in 10.0 mi West 16.1 mph 25.3 mph N/A   Scattered Clouds
7:53 PM 41.0 °F 32.8 °F 16.0 °F 36% 29.72 in 10.0 mi West 16.1 mph 24.2 mph N/A   Partly Cloudy
8:53 PM 39.9 °F 34.5 °F 12.9 °F 33% 29.74 in 10.0 mi NW 8.1 mph - N/A   Clear
9:53 PM 37.0 °F 29.8 °F 8.1 °F 30% 29.78 in 10.0 mi NW 10.4 mph 26.5 mph N/A   Clear
10:53 PM 35.1 °F 28.6 °F 10.0 °F 35% 29.80 in 10.0 mi WNW 8.1 mph 25.3 mph N/A   Clear
11:53 PM 34.0 °F 24.6 °F 10.0 °F 37% 29.81 in 10.0 mi WNW 13.8 mph 20.7 mph N/A   Clear